Weather Roundup
Issued by NWS Chicago, IL

Home | Current Version | Previous Version | Text Only | Print | Product List | Glossary On
Versions: 1 2 3 4 5 6 7 8 9 10 11 12 13 14 15 16 17 18 19 20 21 22 23 24 25 26 27 28 29 30 31 32 33 34 35 36 37 38 39 40 41 42 43 44 45 46 47 48 49 50
000
NZUS59 KLOT 261708
HRRLOT

CHICAGO AREA WEATHER ROUNDUP
NATIONAL WEATHER SERVICE CHICAGO/ROMEOVILLE IL
1200 PM CDT WED APR 26 2017

NOTE: "FAIR" INDICATES FEW OR NO CLOUDS BELOW 12,000 FEET WITH NO
SIGNIFICANT WEATHER AND/OR OBSTRUCTIONS TO VISIBILITY.

* THESE STATIONS ARE NOT UNDER NWS QUALITY CONTROL. THEY ALSO MAY NOT
  REPORT WEATHER SUCH AS PRECIPITATION OR FOG.

ILZ005-006-012>014-019>023-261800-
NORTHEAST ILLINOIS

CITY           SKY/WX    TMP DP  RH WIND       PRES   REMARKS
OHARE          CLOUDY    72  56  57 SW17G31   29.45R
MIDWAY         PTSUNNY   75  58  55 SW16G24   29.45R
AURORA         CLOUDY    68  60  75 SW16      29.48R
LANSING*       CLOUDY    76  60  58 SW23G32   29.47R
JOLIET*        CLOUDY    72  59  63 SW13G18   29.49R
WAUKEGAN       CLOUDY    67  57  70 SW14G26   29.45R
DUPAGE AIRPORT CLOUDY    68  60  75 SW16G23   29.47R
WHEELING       PTSUNNY   70  58  65 W15       29.47R
KANKAKEE*      MOSUNNY   77  57  49 SW22G33   29.49S
MORRIS*        CLOUDY    69  57  65 SW12G17   29.48R
LEWIS AIRPORT* CLOUDY    72  60  67 SW17G28   29.48R
NORTHERLY ISL    N/A     74  54  49 SW16        N/A
$$

WIZ051-052-058>065-066-070>072-261800-
SOUTHEAST WISCONSIN

CITY           SKY/WX    TMP DP  RH WIND       PRES   REMARKS
MILWAUKEE      CLOUDY    64  60  87 SW12      29.43S
KENOSHA*       CLOUDY    67  56  67 SW12G26   29.45R
RACINE*        CLOUDY    61  54  77 S3        29.45R
WAUKESHA       CLOUDY    59  57  94 S12       29.44R
WEST BEND      DRIZZLE   61  59  94 SW13      29.41R
$$

INZ001>003-010>013-019-020-261800-
NORTHWEST INDIANA

CITY           SKY/WX    TMP DP  RH WIND       PRES   REMARKS
GARY*          PTSUNNY   77  52  41 SW17G31   29.47R
MICHIGAN CITY* NOT AVBL
RENSSELAER*    NOT AVBL
VALPARAISO     PTSUNNY   79  59  50 S20G33    29.48R HX  80
$$

LMZ740>746-261800-
SOUTHERN LAKE MICHIGAN

STATION/POSITION TIME  SKY/WX   TEMP WIND        PRES    VSBY
                                AIR  DIR/SP/G
                 (UTC)          (F)  (DEG/KT/KT) (MB)    (MI)
HARRISON CRIB    1630            71  210/ 23/ 26   N/A
BURNHAM HARBOR   1700            73  260/ 18/ 20   N/A
CALUMET HARBOR   1648            73  210/ 11/ 18  997.0R
BURNS HARBOR     1640            74  210/ 21/ 29  998.0R
MICHIGAN CITY    1640            75  160/ 19/ 22   N/A
$$

ABBREVIATIONS USED IN REMARKS
   TC - TEMPERATURE IN CELSIUS
  WCI - WIND CHILL INDEX
   HX - HEAT INDEX
  VSB - VISIBILITY
$$




USA.gov is the U.S. government's official web portal to all federal, state and local government web resources and services.